Temp
-10 -11 -11 -11 -11 -11 -11 -11 -10 -11 -11 -10 -10 -10 -10 -10 -10 -10 -10 -11 -11 -11 -11 -11 -11 -11 -11 -12 -11 -12 -12 -12 -12 -12 -12 -12 -13 -14 -15 -16 -16 -16 -17 -18
-11 -11 -11 -11 -11 -11 -11 -10 -11 -11 -11 -10 -10 -9 -10 -10 -10 -11 -11 -11 -11 -11 -12 -11 -11 -11 -11 -12 -12 -12 -12 -13 -12 -12 -13 -13 -14 -15 -16 -16 -17 -18 -18 -18
-11 -11 -12 -11 -11 -11 -11 -11 -11 -11 -11 -11 -10 -9 -9 -10 -10 -11 -11 -11 -11 -12 -11 -11 -11 -12 -12 -12 -13 -13 -13 -13 -13 -13 -14 -15 -16 -17 -17 -18 -18 -19 -19 -20
-11 -11 -11 -11 -11 -11 -11 -12 -11 -11 -11 -10 -11 -8 -9 -10 -11 -11 -11 -11 -11 -11 -11 -11 -12 -12 -13 -13 -13 -14 -13 -13 -13 -14 -15 -17 -17 -17 -18 -19 -19 -19 -20 -20
-11 -11 -12 -12 -12 -12 -12 -12 -11 -11 -11 -11 -11 -10 -8 -10 -11 -11 -11 -11 -11 -12 -12 -12 -12 -13 -13 -13 -14 -14 -13 -14 -14 -15 -17 -18 -18 -18 -19 -19 -20 -20 -20 -21
-12 -12 -12 -12 -12 -13 -12 -12 -12 -11 -11 -11 -11 -10 -8 -10 -11 -12 -11 -12 -12 -12 -12 -12 -12 -13 -14 -13 -14 -14 -14 -15 -16 -17 -18 -18 -18 -19 -19 -20 -20 -21 -21 -21
-12 -12 -12 -12 -12 -13 -12 -12 -12 -11 -12 -12 -12 -11 -10 -10 -12 -12 -12 -12 -12 -12 -12 -13 -13 -14 -14 -14 -14 -15 -15 -16 -17 -18 -18 -18 -19 -20 -20 -20 -21 -21 -21 -22
-12 -12 -12 -12 -12 -13 -13 -13 -13 -13 -12 -11 -12 -11 -10 -11 -12 -13 -14 -13 -13 -13 -13 -13 -14 -14 -14 -14 -15 -15 -16 -17 -18 -18 -18 -19 -20 -20 -20 -21 -21 -21 -22 -23
-13 -13 -13 -12 -13 -13 -13 -13 -13 -14 -13 -12 -12 -11 -10 -12 -12 -13 -13 -13 -13 -13 -13 -14 -14 -15 -15 -15 -15 -16 -18 -18 -18 -18 -18 -19 -20 -21 -21 -21 -21 -22 -22 -23
-13 -13 -13 -13 -13 -13 -13 -13 -13 -14 -14 -13 -12 -11 -11 -11 -13 -13 -12 -13 -13 -13 -14 -14 -15 -15 -15 -16 -17 -18 -18 -18 -18 -18 -19 -20 -21 -21 -21 -22 -22 -22 -23 -24
-14 -13 -13 -13 -13 -13 -14 -13 -14 -14 -14 -15 -14 -10 -12 -12 -15 -13 -13 -13 -13 -14 -15 -15 -15 -15 -16 -17 -18 -18 -18 -18 -18 -19 -20 -20 -21 -21 -22 -22 -22 -22 -23 -24
-14 -14 -13 -13 -13 -13 -14 -14 -14 -15 -14 -15 -16 -10 -13 -14 -14 -13 -14 -13 -14 -15 -15 -16 -15 -16 -17 -18 -18 -19 -19 -18 -19 -19 -20 -21 -22 -22 -22 -22 -22 -22 -24 -25
-14 -14 -14 -13 -13 -14 -14 -14 -15 -15 -15 -14 -15 -12 -14 -14 -14 -14 -13 -14 -15 -16 -16 -16 -16 -17 -17 -18 -19 -19 -19 -19 -19 -20 -20 -21 -22 -22 -22 -22 -22 -23 -25 -25
-15 -14 -14 -14 -14 -15 -14 -14 -15 -15 -15 -15 -14 -14 -13 -15 -15 -14 -14 -15 -16 -16 -16 -16 -17 -17 -18 -18 -19 -19 -19 -20 -20 -21 -21 -22 -22 -22 -23 -23 -22 -23 -25 -25
-15 -14 -15 -14 -14 -15 -15 -14 -15 -15 -16 -16 -14 -15 -14 -16 -15 -15 -16 -16 -17 -17 -16 -16 -17 -18 -18 -19 -20 -20 -20 -20 -21 -21 -22 -22 -22 -23 -23 -23 -23 -24 -25 -25
-15 -15 -15 -15 -15 -16 -16 -14 -15 -16 -16 -16 -16 -14 -16 -15 -16 -16 -17 -17 -17 -16 -16 -17 -18 -19 -19 -20 -20 -20 -20 -21 -21 -22 -22 -22 -23 -23 -23 -23 -24 -26 -26 -25
-16 -15 -15 -15 -16 -16 -14 -14 -15 -15 -15 -16 -15 -15 -16 -16 -17 -17 -17 -17 -17 -17 -17 -18 -19 -20 -20 -21 -20 -20 -21 -21 -22 -22 -23 -23 -24 -23 -23 -23 -25 -27 -26 -26
-16 -16 -16 -16 -16 -16 -14 -14 -14 -15 -14 -16 -16 -16 -17 -17 -18 -18 -17 -17 -17 -18 -18 -19 -20 -20 -21 -21 -21 -21 -22 -22 -22 -23 -23 -24 -24 -24 -23 -24 -26 -27 -26 -26
-16 -16 -16 -17 -17 -16 -13 -15 -16 -16 -14 -16 -17 -17 -18 -18 -18 -18 -18 -17 -17 -18 -18 -19 -20 -20 -21 -21 -21 -22 -22 -22 -23 -23 -24 -24 -24 -24 -24 -26 -27 -28 -27 -27
-16 -16 -17 -17 -17 -17 -14 -15 -17 -16 -15 -16 -16 -17 -18 -18 -18 -18 -18 -17 -17 -18 -19 -19 -20 -21 -21 -21 -22 -22 -23 -23 -23 -24 -25 -25 -24 -24 -25 -27 -28 -28 -27 -27
-16 -16 -17 -17 -18 -16 -14 -17 -17 -16 -17 -17 -17 -17 -18 -18 -18 -18 -19 -18 -18 -19 -20 -21 -21 -22 -22 -22 -22 -23 -23 -24 -24 -25 -25 -25 -24 -25 -28 -29 -29 -28 -27 -27
-17 -17 -16 -17 -18 -16 -16 -17 -17 -18 -17 -17 -18 -18 -18 -18 -19 -19 -19 -19 -19 -20 -20 -22 -22 -22 -22 -23 -23 -23 -24 -25 -25 -26 -26 -25 -25 -28 -30 -30 -29 -28 -27 -27
-17 -17 -18 -17 -16 -16 -17 -17 -17 -17 -18 -18 -18 -18 -19 -19 -19 -19 -20 -20 -20 -21 -22 -22 -23 -23 -23 -23 -24 -24 -25 -25 -26 -26 -26 -25 -28 -30 -31 -30 -29 -28 -28 -27
-17 -18 -18 -17 -15 -17 -17 -18 -18 -18 -18 -18 -19 -19 -19 -19 -19 -20 -20 -20 -21 -21 -22 -23 -23 -24 -24 -24 -25 -25 -26 -27 -27 -26 -26 -27 -30 -31 -31 -31 -29 -28 -27 -27
-18 -18 -17 -17 -16 -17 -18 -18 -18 -19 -19 -19 -19 -20 -20 -20 -20 -20 -20 -21 -21 -22 -23 -23 -24 -24 -24 -25 -26 -27 -27 -28 -27 -26 -27 -29 -31 -31 -31 -31 -29 -28 -28 -27
-17 -17 -18 -17 -17 -17 -18 -17 -17 -19 -19 -20 -20 -20 -20 -20 -20 -20 -21 -21 -22 -23 -23 -24 -25 -25 -25 -26 -27 -28 -29 -28 -28 -27 -29 -30 -31 -31 -31 -31 -30 -29 -27 -27
Height
5836 5832 5828 5824 5819 5816 5812 5808 5803 5801 5795 5788 5783 5779 5776 5772 5768 5763 5760 5756 5751 5745 5737 5733 5731 5726 5719 5712 5705 5699 5692 5685 5678 5672 5664 5656 5645 5632 5622 5616 5609 5600 5594 5587
5829 5824 5821 5817 5812 5808 5804 5798 5795 5791 5784 5779 5774 5767 5769 5763 5759 5753 5749 5744 5739 5733 5728 5724 5718 5712 5704 5699 5691 5683 5675 5667 5658 5651 5641 5630 5619 5610 5604 5597 5586 5576 5568 5558
5821 5815 5811 5808 5803 5798 5797 5789 5785 5779 5772 5769 5765 5753 5757 5756 5749 5745 5740 5735 5728 5721 5715 5710 5705 5698 5689 5681 5673 5666 5656 5648 5640 5629 5618 5607 5597 5589 5583 5573 5565 5554 5542 5531
5811 5808 5802 5799 5794 5789 5788 5784 5776 5771 5764 5756 5756 5738 5744 5745 5738 5733 5727 5720 5715 5709 5703 5698 5690 5683 5674 5666 5657 5649 5640 5631 5620 5608 5596 5585 5577 5572 5559 5550 5541 5532 5518 5505
5803 5795 5791 5789 5785 5780 5777 5772 5765 5761 5755 5745 5747 5733 5728 5730 5724 5720 5715 5707 5701 5694 5689 5683 5675 5666 5659 5651 5643 5634 5625 5614 5601 5588 5575 5564 5557 5547 5538 5526 5516 5505 5493 5478
5791 5786 5781 5778 5774 5770 5766 5761 5754 5749 5742 5734 5729 5722 5718 5715 5710 5707 5699 5690 5685 5680 5674 5668 5661 5653 5644 5635 5628 5619 5608 5595 5583 5570 5557 5547 5537 5528 5518 5507 5497 5483 5469 5454
5780 5777 5772 5769 5764 5759 5755 5749 5740 5736 5730 5721 5715 5705 5704 5700 5696 5692 5683 5677 5671 5667 5660 5653 5646 5637 5629 5621 5612 5601 5590 5578 5565 5556 5544 5532 5519 5510 5498 5484 5472 5460 5446 5431
5765 5763 5763 5758 5753 5748 5746 5741 5730 5722 5718 5711 5704 5694 5691 5687 5685 5680 5671 5663 5658 5651 5644 5636 5629 5622 5615 5605 5594 5584 5572 5562 5552 5542 5528 5514 5503 5492 5481 5467 5450 5436 5420 5410
5752 5747 5746 5742 5740 5737 5732 5729 5722 5704 5703 5696 5690 5682 5675 5673 5672 5662 5656 5647 5641 5634 5628 5620 5613 5605 5596 5586 5578 5567 5557 5548 5537 5526 5512 5499 5486 5474 5461 5447 5433 5418 5400 5389
5743 5737 5731 5729 5725 5724 5718 5715 5708 5699 5685 5681 5679 5671 5660 5661 5652 5648 5641 5634 5627 5619 5612 5605 5597 5589 5580 5568 5560 5552 5542 5531 5522 5510 5496 5482 5469 5457 5442 5427 5414 5398 5381 5366
5728 5724 5721 5715 5714 5709 5708 5703 5696 5686 5675 5660 5654 5661 5648 5646 5640 5634 5625 5620 5613 5607 5598 5591 5584 5576 5565 5557 5547 5537 5525 5516 5507 5495 5481 5468 5454 5440 5424 5409 5394 5377 5361 5347
5709 5703 5699 5699 5696 5695 5694 5688 5682 5668 5664 5653 5638 5635 5639 5632 5629 5618 5612 5607 5600 5593 5587 5579 5570 5560 5551 5543 5532 5522 5512 5502 5490 5478 5465 5453 5438 5425 5410 5393 5376 5358 5343 5331
5693 5685 5682 5684 5682 5679 5673 5673 5666 5653 5646 5641 5628 5617 5620 5616 5615 5606 5601 5595 5588 5582 5575 5567 5557 5547 5540 5529 5520 5508 5496 5485 5473 5459 5447 5435 5421 5410 5395 5378 5360 5342 5326 5317
5674 5670 5667 5670 5669 5661 5659 5658 5649 5638 5631 5626 5614 5609 5616 5603 5594 5589 5584 5578 5574 5569 5561 5551 5541 5533 5524 5514 5505 5493 5480 5469 5456 5443 5431 5417 5405 5392 5378 5361 5342 5324 5311 5304
5657 5656 5652 5654 5651 5644 5646 5645 5636 5628 5619 5603 5606 5596 5594 5586 5578 5575 5569 5564 5560 5553 5544 5534 5525 5517 5508 5498 5489 5477 5465 5453 5442 5429 5416 5402 5388 5375 5361 5344 5325 5307 5298 5291
5643 5639 5635 5634 5634 5627 5626 5625 5624 5612 5605 5591 5586 5582 5583 5570 5564 5560 5556 5549 5544 5536 5527 5517 5509 5500 5492 5483 5475 5463 5452 5441 5428 5416 5401 5386 5372 5359 5343 5326 5308 5293 5285 5277
5627 5622 5617 5610 5614 5605 5604 5614 5604 5598 5592 5579 5571 5570 5565 5555 5551 5548 5542 5537 5529 5520 5511 5501 5492 5485 5476 5469 5460 5449 5438 5426 5414 5401 5386 5372 5356 5343 5327 5309 5292 5279 5272 5264
5609 5606 5598 5591 5591 5582 5597 5591 5586 5577 5581 5564 5559 5558 5549 5547 5542 5537 5531 5522 5514 5505 5496 5487 5479 5471 5463 5455 5446 5434 5423 5411 5400 5386 5372 5355 5340 5325 5309 5292 5276 5266 5258 5252
5594 5588 5579 5574 5570 5565 5583 5575 5564 5558 5565 5550 5545 5543 5537 5532 5528 5526 5516 5508 5499 5490 5481 5472 5464 5458 5450 5442 5431 5421 5410 5397 5384 5370 5355 5339 5323 5309 5291 5275 5262 5253 5247 5240
5576 5572 5563 5561 5549 5544 5563 5559 5549 5541 5542 5542 5534 5531 5526 5520 5513 5507 5499 5491 5482 5475 5467 5458 5451 5444 5436 5429 5417 5408 5396 5383 5370 5356 5340 5325 5307 5289 5273 5258 5249 5241 5235 5229
5554 5550 5546 5546 5534 5535 5547 5542 5534 5529 5528 5527 5523 5516 5511 5506 5498 5488 5480 5475 5468 5460 5451 5443 5435 5429 5421 5414 5405 5393 5383 5370 5357 5343 5327 5311 5293 5273 5257 5246 5238 5230 5223 5218
5533 5533 5532 5529 5523 5525 5534 5525 5520 5515 5510 5507 5503 5497 5492 5487 5479 5471 5464 5458 5451 5444 5435 5429 5422 5416 5409 5402 5393 5381 5370 5357 5343 5329 5314 5297 5278 5259 5247 5237 5228 5221 5212 5208
5509 5517 5515 5513 5512 5518 5518 5512 5506 5498 5493 5487 5484 5480 5475 5469 5463 5455 5449 5442 5436 5429 5421 5414 5408 5401 5396 5387 5379 5368 5355 5344 5331 5317 5302 5284 5266 5250 5238 5229 5220 5212 5204 5199
5495 5498 5494 5494 5508 5502 5498 5493 5491 5482 5475 5468 5466 5462 5457 5452 5445 5438 5432 5426 5419 5413 5406 5402 5395 5389 5381 5372 5363 5354 5342 5331 5318 5304 5289 5273 5257 5244 5233 5222 5212 5204 5196 5192
5480 5483 5487 5479 5489 5483 5480 5478 5472 5464 5457 5452 5447 5443 5439 5434 5428 5421 5416 5410 5404 5398 5393 5387 5383 5375 5368 5359 5350 5340 5329 5318 5305 5292 5277 5262 5248 5238 5229 5218 5205 5196 5190 5188
5465 5471 5464 5464 5473 5463 5462 5458 5451 5446 5442 5437 5430 5425 5421 5416 5411 5405 5399 5394 5389 5383 5379 5375 5369 5362 5354 5346 5337 5328 5317 5305 5292 5280 5265 5253 5242 5233 5225 5218 5208 5190 5187 5184
Wind_Speed
31 31 31 32 35 36 38 40 42 39 42 44 44 42 41 40 39 36 38 38 41 42 45 45 48 51 51 55 58 57 59 61 64 69 67 69 75 80 82 81 82 86 88 85
35 35 35 34 35 37 38 41 41 43 48 49 47 48 41 43 42 39 37 42 42 46 46 49 51 53 56 56 57 59 61 62 66 68 72 77 81 83 80 82 88 84 82 84
37 38 37 36 37 39 37 42 43 48 52 52 50 50 45 42 43 41 43 43 44 47 49 50 52 55 55 55 57 57 60 63 68 73 79 83 82 78 82 85 86 82 78 81
40 38 39 38 39 43 40 41 45 49 54 56 49 55 51 44 39 43 44 47 49 53 53 53 56 57 56 56 57 58 60 67 73 79 83 83 79 81 87 84 82 75 80 87
39 41 42 40 42 44 43 44 47 50 53 57 52 55 49 46 45 44 47 53 53 53 54 59 61 60 57 57 57 57 65 72 78 82 82 80 84 87 84 80 81 82 85 87
43 42 44 43 45 46 47 48 51 54 56 60 60 59 52 53 50 48 53 59 58 57 58 60 62 59 56 57 57 62 69 76 81 81 79 83 88 84 79 83 78 82 90 92
44 43 45 46 49 49 49 52 56 58 62 64 62 63 59 59 56 53 58 58 59 57 60 62 60 56 56 56 60 66 72 78 80 78 80 87 84 78 82 84 82 87 89 82
46 48 45 48 50 51 50 51 56 59 62 64 66 67 64 60 55 56 58 59 58 62 62 64 57 55 57 61 64 70 75 78 78 76 83 87 81 81 83 84 84 89 90 71
49 52 51 53 52 52 53 53 56 61 65 68 67 67 64 62 59 59 60 62 62 65 65 60 56 57 60 66 69 74 77 77 74 78 85 85 81 81 85 83 84 91 90 68
47 51 56 57 57 56 56 57 58 59 69 72 67 63 69 63 68 62 64 65 67 68 62 57 56 59 66 69 72 76 79 74 73 81 86 84 81 82 84 83 85 92 87 63
52 55 59 60 59 59 57 58 61 63 70 77 78 59 69 67 64 64 66 68 70 65 56 55 56 63 69 72 76 78 75 72 76 83 85 83 81 83 85 84 87 92 82 56
60 64 66 64 63 62 59 62 63 69 71 77 83 70 64 64 60 66 68 71 68 57 53 53 61 67 72 74 78 75 71 72 80 85 84 82 81 82 82 84 89 92 73 52
65 69 70 68 68 66 66 64 65 71 75 78 79 71 64 63 63 67 69 64 57 50 50 57 64 69 73 76 74 70 71 76 82 84 84 82 84 83 83 85 89 91 61 47
69 72 74 70 67 67 69 68 71 74 82 76 68 63 58 59 64 66 59 57 49 49 59 62 67 72 75 75 72 67 73 78 81 83 83 84 84 83 83 87 91 84 51 43
73 74 73 70 70 70 71 74 74 75 65 64 61 64 64 56 65 58 54 48 47 58 63 65 69 73 76 72 66 69 75 79 80 81 83 84 85 83 86 89 90 73 45 43
71 72 73 73 74 78 77 65 59 54 58 61 62 70 51 62 60 52 46 46 56 61 61 66 70 73 73 67 65 71 75 79 80 81 84 85 85 84 88 90 83 62 48 43
70 72 73 82 76 72 66 47 52 55 56 60 63 60 55 56 51 44 48 56 58 60 63 68 72 72 70 65 67 73 76 78 80 82 82 83 84 87 89 88 73 54 45 42
74 71 77 75 63 65 51 54 57 59 57 60 62 57 53 47 42 46 55 59 59 60 64 68 71 70 67 64 69 74 76 77 79 81 80 82 85 89 91 84 61 52 40 37
66 65 61 59 57 60 54 54 54 54 59 57 56 51 47 48 49 54 61 60 59 60 64 68 68 68 65 64 70 74 74 77 78 79 79 83 87 90 92 76 52 51 36 34
59 52 52 53 59 63 63 53 52 59 62 42 44 45 51 56 56 64 67 60 58 61 65 67 67 66 63 65 70 72 72 74 75 76 79 84 88 92 86 68 47 49 37 33
57 58 60 58 59 64 60 54 56 58 50 44 54 55 54 61 62 59 58 59 58 63 66 65 64 63 62 66 69 71 71 73 73 75 80 84 89 86 74 59 48 50 37 33
61 60 63 57 55 61 50 55 54 53 54 61 62 60 63 62 60 63 62 58 60 64 64 63 63 62 63 66 67 69 70 69 72 76 81 85 84 72 62 52 49 47 35 30
61 54 53 56 57 49 46 53 63 63 61 65 65 62 64 61 61 64 62 56 61 64 60 62 61 60 62 65 65 66 66 67 72 77 80 81 71 61 53 49 50 43 34 26
55 53 57 61 58 56 67 65 65 68 73 75 68 61 60 64 66 65 62 57 61 60 58 59 58 58 60 62 63 63 62 67 72 77 78 74 60 51 46 48 51 40 28 21
60 61 65 71 65 75 77 72 67 70 68 69 67 63 62 66 68 66 59 60 59 57 57 57 56 56 58 58 58 58 62 68 73 76 75 64 53 46 41 45 50 40 19 17
79 73 78 85 81 79 72 69 70 61 58 64 63 65 66 67 65 62 58 58 57 55 54 53 52 54 55 53 54 57 63 69 71 74 68 56 49 42 36 38 45 46 16 17
Wind_Direction
308 306 307 310 311 309 310 312 315 318 315 315 315 312 312 311 312 309 308 311 312 311 308 309 310 310 312 314 312 309 308 307 310 308 307 302 296 291 292 298 297 293 293 296
304 303 303 307 308 307 310 311 314 318 315 315 312 310 310 312 317 315 314 315 314 310 306 307 314 316 314 312 310 310 310 310 311 309 304 298 294 296 301 300 299 304 305 301
302 300 301 303 304 305 310 310 312 314 314 314 313 306 308 311 309 309 311 309 307 309 310 312 314 312 310 309 308 309 309 311 312 305 299 298 302 305 304 304 305 307 302 298
299 294 294 299 301 302 306 306 308 312 312 311 317 306 311 317 312 311 312 312 307 308 312 314 313 313 312 310 310 310 312 312 307 301 300 303 306 306 306 309 308 306 301 306
298 295 295 297 298 299 303 304 305 311 315 310 312 307 307 317 310 312 314 312 310 311 315 316 315 314 311 311 311 310 315 309 303 303 306 308 309 310 312 310 310 306 306 310
296 293 292 295 295 298 301 303 304 308 312 310 311 311 311 316 309 312 313 312 313 314 315 315 314 311 309 312 311 313 312 305 304 307 308 308 309 312 311 312 309 309 314 313
291 289 290 292 293 297 302 304 305 306 310 311 312 307 310 309 313 313 312 314 311 313 313 314 312 308 308 311 314 309 307 305 307 309 307 307 311 312 313 313 311 316 316 315
290 288 287 289 293 298 301 302 303 304 307 306 306 305 308 309 314 312 312 310 311 313 313 314 311 308 311 315 312 308 306 307 308 308 307 310 312 312 315 315 314 318 316 311
288 289 290 292 294 298 300 302 303 304 307 307 305 305 307 313 317 312 312 310 310 311 316 314 312 311 313 313 310 306 307 308 308 307 308 312 311 312 314 317 317 317 316 307
286 286 287 290 293 297 298 302 303 303 304 306 303 301 303 315 317 313 311 311 312 314 315 313 312 311 307 307 307 306 307 308 308 307 309 313 313 313 315 316 318 317 317 304
289 286 287 288 293 293 296 299 300 300 304 307 307 307 305 312 315 313 311 312 312 313 312 312 310 308 304 305 304 306 308 307 307 307 312 314 312 315 316 316 319 316 315 300
290 288 287 289 292 293 297 297 299 299 305 306 305 306 310 308 310 306 307 309 310 309 309 310 311 304 302 304 306 307 306 306 307 310 314 313 313 317 316 318 320 317 313 297
286 285 287 290 292 297 295 298 299 299 301 304 306 302 305 305 306 303 305 307 305 306 311 312 308 301 303 304 306 307 305 307 309 312 315 313 315 316 316 319 320 320 308 296
280 282 285 287 292 292 293 295 297 297 299 303 294 303 301 304 299 303 308 304 306 306 314 310 302 302 302 304 307 305 306 309 311 313 314 315 315 316 317 320 320 320 303 297
280 283 285 285 287 289 290 291 292 296 300 294 298 297 304 298 301 305 304 303 305 311 309 305 302 302 303 306 306 305 307 310 312 314 314 315 315 316 319 322 321 317 300 293
279 283 283 283 285 288 292 291 296 293 295 294 296 300 300 299 301 303 302 300 307 308 307 304 302 304 305 305 303 305 308 310 312 315 315 315 315 317 320 322 320 313 302 294
281 284 285 288 291 290 287 300 289 291 295 295 295 301 300 300 301 300 299 307 307 306 305 303 304 304 305 303 304 306 308 311 314 315 315 315 315 318 321 322 317 310 303 297
281 284 289 290 289 285 292 290 292 292 294 292 294 301 294 292 291 293 305 306 307 304 302 302 302 303 302 301 305 307 310 313 315 315 316 316 318 321 322 322 314 309 299 298
279 281 283 283 283 284 286 296 297 299 297 296 299 292 283 286 289 301 304 307 306 303 302 303 303 302 301 302 304 307 311 315 316 316 317 317 320 322 323 321 312 313 298 298
272 274 274 276 279 284 296 296 298 295 302 296 302 304 291 287 290 302 303 304 301 301 301 302 303 301 299 302 305 310 313 315 316 317 317 320 323 323 323 321 315 314 299 295
275 274 275 275 281 284 294 299 298 296 302 301 307 311 298 298 298 299 298 300 300 300 301 302 300 297 300 303 308 311 314 316 317 318 320 324 325 324 322 320 318 317 300 293
269 270 270 273 281 288 297 297 295 293 295 298 302 303 302 301 301 297 299 297 299 299 301 299 297 297 302 306 308 312 314 316 317 319 324 327 326 322 321 320 319 320 304 293
267 273 270 269 277 288 298 301 303 298 295 296 301 305 303 302 302 294 295 296 298 299 299 297 295 300 305 306 310 313 315 316 318 322 327 328 326 321 320 320 320 321 307 291
272 270 268 271 280 293 299 304 305 296 293 296 300 302 300 296 301 296 295 296 297 297 295 294 298 305 305 308 311 314 316 318 320 326 329 330 324 322 319 321 323 322 307 288
274 279 282 282 281 292 296 298 293 293 292 296 297 299 299 294 298 297 293 293 294 294 293 295 302 303 304 307 311 315 319 320 326 328 330 330 324 323 318 323 324 327 303 285
277 286 285 290 291 288 294 294 292 290 294 298 296 296 295 294 296 293 291 292 293 292 294 299 301 301 305 308 313 318 320 325 329 331 331 327 322 322 316 324 328 325 304 292